03-01-2022, 06:34:40,    198,    0.7,    6.6,   2.20,   8.48, 1005.8,   81.7, -999.0
03-01-2022, 06:34:50,    235,    0.4,    6.6,   0.00,   0.00, 1005.8,   81.8, -999.0
03-01-2022, 06:35:00,    212,    0.7,    6.6,   0.00,   0.00, 1005.8,   81.6, -999.0
03-01-2022, 06:35:10,    238,    5.0,    6.7,   0.00,   0.00, 1005.9,   81.8, -999.0
03-01-2022, 06:35:20,    230,    4.0,    6.6,   0.00,   0.00, 1005.9,   81.8, -999.0
03-01-2022, 06:35:30,    231,    2.5,    6.7,   0.00,   0.00, 1005.9,   81.9, -999.0
03-01-2022, 06:35:40,    195,    3.1,    6.7,   0.00,   0.00, 1005.9,   82.0, -999.0
03-01-2022, 06:35:50,    209,    2.3,    6.6,   0.00,   0.00, 1005.9,   81.9, -999.0
03-01-2022, 06:36:00,    230,    2.5,    6.7,   0.00,   0.00, 1005.9,   82.0, -999.0
03-01-2022, 06:36:09,    210,    4.1,    6.6,   0.00,   0.00, 1005.9,   81.8, -999.0
03-01-2022, 06:36:20,    231,    2.3,    6.7,   0.00,   0.00, 1005.9,   81.8, -999.0
03-01-2022, 06:36:29,    223,    3.1,    6.7,   0.00,   0.00, 1005.9,   81.8, -999.0
03-01-2022, 06:36:39,    220,    4.2,    6.8,   0.00,   0.00, 1005.9,   81.9, -999.0
03-01-2022, 06:36:49,    244,    2.5,    6.8,   0.00,   0.00, 1005.9,   81.8, -999.0
03-01-2022, 06:36:59,    212,    3.7,    6.8,   0.00,   0.00, 1005.9,   81.8, -999.0
03-01-2022, 06:37:09,    215,    3.6,    6.7,   0.00,   0.00, 1005.9,   81.8, -999.0
03-01-2022, 06:37:19,    260,    0.9,    6.7,   0.00,   0.00, 1005.9,   81.8, -999.0
03-01-2022, 06:37:29,    243,    1.1,    6.7,   0.00,   0.00, 1005.9,   81.8, -999.0
03-01-2022, 06:37:39,    207,    0.8,    6.7,   0.00,   0.00, 1005.9,   81.7, -999.0
03-01-2022, 06:37:49,    257,    0.4,    6.7,   0.00,   0.00, 1005.8,   81.6, -999.0
03-01-2022, 06:37:59,    196,    0.6,    6.7,   0.00,   0.00, 1005.9,   81.6, -999.0
03-01-2022, 06:38:09,    195,    0.5,    6.7,   0.00,   0.00, 1005.8,   81.5, -999.0
03-01-2022, 06:38:19,    242,    1.4,    6.7,   0.00,   0.00, 1005.9,   81.7, -999.0
03-01-2022, 06:38:29,    241,    1.6,    6.8,   0.00,   0.00, 1005.9,   81.8, -999.0
03-01-2022, 06:38:39,    190,    0.2,    6.6,   0.00,   0.00, 1005.8,   81.6, -999.0
03-01-2022, 06:38:49,    230,    2.6,    6.7,   0.00,   0.00, 1005.9,   81.8, -999.0
03-01-2022, 06:38:59,    216,    2.5,    6.7,   0.00,   0.00, 1005.9,   81.8, -999.0
03-01-2022, 06:39:09,    211,    5.5,    6.7,   0.00,   0.00, 1005.9,   81.8, -999.0
03-01-2022, 06:39:18,    248,    2.9,    6.7,   0.00,   0.00, 1005.9,   81.8, -999.0
03-01-2022, 06:39:29,    198,    2.8,    6.8,   0.00,   0.00, 1005.9,   81.7, -999.0
03-01-2022, 06:39:38,    228,    0.7,    6.8,   0.00,   0.00, 1005.8,   81.8, -999.0
03-01-2022, 06:39:48,    193,    2.6,    6.8,   0.00,   0.00, 1005.9,   81.8, -999.0
03-01-2022, 06:39:59,    246,    3.9,    6.8,   0.00,   0.00, 1005.9,   81.8, -999.0
03-01-2022, 06:40:08,    224,    3.2,    6.7,   0.00,   0.00, 1005.9,   81.7, -999.0
03-01-2022, 06:40:18,    195,    2.6,    6.7,   0.00,   0.00, 1005.9,   81.8, -999.0
03-01-2022, 06:40:28,    211,    1.9,    6.7,   0.00,   0.00, 1005.8,   81.7, -999.0
03-01-2022, 06:40:38,    233,    2.0,    6.7,   0.00,   0.00, 1005.9,   81.8, -999.0
03-01-2022, 06:40:48,    223,    0.2,    6.7,   0.00,   0.00, 1005.8,   81.7, -999.0
03-01-2022, 06:40:58,    220,    0.6,    6.6,   0.00,   0.00, 1005.9,   81.6, -999.0
03-01-2022, 06:41:08,    209,    1.2,    6.7,   0.00,   0.00, 1005.9,   81.8, -999.0
03-01-2022, 06:41:18,    225,    0.7,    6.7,   0.00,   0.00, 1005.9,   81.7, -999.0
03-01-2022, 06:41:28,    210,    1.0,    6.7,   0.00,   0.00, 1005.8,   81.7, -999.0
03-01-2022, 06:41:39,    204,    1.0,    6.7,   0.00,   0.00, 1005.8,   81.6, -999.0
03-01-2022, 06:41:48,    235,    2.0,    6.7,   0.00,   0.00, 1005.9,   81.7, -999.0
03-01-2022, 06:41:58,    215,    5.4,    6.7,   0.00,   0.00, 1005.9,   81.7, -999.0
03-01-2022, 06:42:08,    204,    4.0,    6.7,   0.00,   0.00, 1005.9,   81.8, -999.0
03-01-2022, 06:42:17,    237,    4.4,    6.7,   0.00,   0.00, 1005.9,   81.8, -999.0
03-01-2022, 06:42:28,    245,    4.5,    6.8,   0.00,   0.00, 1005.9,   81.8, -999.0
03-01-2022, 06:42:38,    243,    6.2,    6.8,   0.00,   0.00, 1005.9,   81.9, -999.0
03-01-2022, 06:42:47,    246,    3.7,    6.8,   0.00,   0.00, 1005.9,   81.8, -999.0
03-01-2022, 06:42:57,    231,    3.7,    6.8,   0.00,   0.00, 1005.9,   81.9, -999.0
03-01-2022, 06:43:07,    234,    5.8,    6.8,   0.00,   0.00, 1005.9,   81.8, -999.0
03-01-2022, 06:43:17,    232,    4.1,    6.8,   0.00,   0.00, 1005.9,   81.8, -999.0
03-01-2022, 06:43:27,    251,    0.8,    6.8,   0.00,   0.00, 1005.9,   81.7, -999.0
03-01-2022, 06:43:37,    240,    2.4,    6.8,   0.00,   0.00, 1005.9,   81.7, -999.0
03-01-2022, 06:43:47,    251,    1.1,    6.8,   0.00,   0.00, 1005.9,   81.7, -999.0
03-01-2022, 06:43:57,    209,    1.5,    6.8,   0.00,   0.00, 1005.9,   81.7, -999.0
03-01-2022, 06:44:07,    218,    2.9,    6.8,   0.00,   0.00, 1005.9,   81.7, -999.0
03-01-2022, 06:44:17,    255,    2.2,    6.8,   0.00,   0.00, 1005.9,   81.6, -999.0
03-01-2022, 06:44:27,    265,    1.7,    6.8,   0.00,   0.00, 1005.9,   81.6, -999.0
03-01-2022, 06:44:37,    265,    0.2,    6.7,   0.00,   0.00, 1005.8,   81.5, -999.0
03-01-2022, 06:44:47,    265,    0.0,    6.7,   0.00,   0.00, 1005.8,   81.2, -999.0
03-01-2022, 06:44:57,    301,    0.0,    6.6,   0.00,   0.00, 1005.7,   81.2, -999.0
03-01-2022, 06:45:07,    299,    0.2,    6.7,   0.00,   0.00, 1005.8,   81.3, -999.0
03-01-2022, 06:45:17,    188,    0.4,    6.7,   0.00,   0.00, 1005.8,   81.4, -999.0
03-01-2022, 06:45:26,    244,    1.6,    6.7,   0.00,   0.00, 1005.9,   81.4, -999.0
03-01-2022, 06:45:37,    233,    0.7,    6.8,   0.00,   0.00, 1005.9,   81.5, -999.0
03-01-2022, 06:45:47,    225,    1.9,    6.7,   0.00,   0.00, 1005.9,   81.5, -999.0
03-01-2022, 06:45:56,    227,    0.9,    6.8,   0.00,   0.00, 1005.9,   81.4, -999.0
03-01-2022, 06:46:07,    229,    0.4,    6.6,   0.00,   0.00, 1005.8,   81.5, -999.0
03-01-2022, 06:46:16,    257,    1.2,    6.6,   0.00,   0.00, 1005.9,   81.5, -999.0
03-01-2022, 06:46:26,    204,    3.5,    6.7,   0.00,   0.00, 1005.9,   81.5, -999.0
03-01-2022, 06:46:36,    232,    2.3,    6.7,   0.00,   0.00, 1005.9,   81.5, -999.0
03-01-2022, 06:46:46,    249,    1.6,    6.7,   0.00,   0.00, 1005.9,   81.7, -999.0
03-01-2022, 06:46:56,    212,    1.9,    6.7,   0.00,   0.00, 1005.9,   81.7, -999.0
03-01-2022, 06:47:06,    182,    1.3,    6.7,   0.00,   0.00, 1005.9,   81.6, -999.0
03-01-2022, 06:47:16,    199,    2.3,    6.6,   0.00,   0.00, 1005.9,   81.7, -999.0
03-01-2022, 06:47:26,    256,    0.5,    6.7,   0.00,   0.00, 1005.8,   81.6, -999.0
03-01-2022, 06:47:36,    251,    0.4,    6.5,   0.00,   0.00, 1005.8,   81.5, -999.0
03-01-2022, 06:47:46,    202,    0.4,    6.7,   0.00,   0.00, 1005.9,   81.6, -999.0
03-01-2022, 06:47:56,    199,    1.5,    6.7,   0.00,   0.00, 1005.9,   81.7, -999.0
03-01-2022, 06:48:06,    198,    1.0,    6.7,   0.00,   0.00, 1005.9,   81.8, -999.0
03-01-2022, 06:48:16,    199,    0.4,    6.7,   0.00,   0.00, 1005.8,   81.6, -999.0
03-01-2022, 06:48:26,    262,    2.5,    6.7,   0.00,   0.00, 1005.9,   81.7, -999.0
03-01-2022, 06:48:36,    246,    0.8,    6.7,   0.00,   0.00, 1005.9,   81.7, -999.0
03-01-2022, 06:48:46,    218,    1.4,    6.7,   0.00,   0.00, 1005.9,   81.7, -999.0
03-01-2022, 06:48:55,    221,    0.8,    6.7,   0.00,   0.00, 1005.9,   81.7, -999.0
03-01-2022, 06:49:05,    237,    1.3,    6.7,   0.00,   0.00, 1005.9,   81.7, -999.0
03-01-2022, 06:49:16,    229,    4.7,    6.7,   0.00,   0.00, 1005.9,   81.8, -999.0
03-01-2022, 06:49:25,    229,    2.1,    6.7,   0.00,   0.00, 1005.9,   81.7, -999.0
03-01-2022, 06:49:35,    214,    0.6,    6.7,   0.00,   0.00, 1005.8,   81.7, -999.0
03-01-2022, 06:49:45,    214,    0.4,    6.7,   0.00,   0.00, 1005.8,   81.6, -999.0
03-01-2022, 06:49:55,    208,    1.3,    6.7,   0.00,   0.00, 1005.9,   81.8, -999.0
03-01-2022, 06:50:05,    207,    2.4,    6.7,   0.00,   0.00, 1005.9,   81.7, -999.0
03-01-2022, 06:50:15,    216,    0.3,    6.7,   0.00,   0.00, 1005.8,   81.7, -999.0
03-01-2022, 06:50:25,    219,    0.3,    6.6,   0.00,   0.00, 1005.8,   81.5, -999.0
03-01-2022, 06:50:45,    219,    0.6,    6.7,   0.00,   0.00, 1005.9,   81.7, -999.0
03-01-2022, 06:50:55,    213,    3.2,    6.7,   0.00,   0.00, 1005.9,   81.7, -999.0
03-01-2022, 06:51:05,    228,    2.4,    6.7,   0.00,   0.00, 1005.9,   81.8, -999.0
03-01-2022, 06:51:15,    210,    3.9,    6.7,   0.00,   0.00, 1005.9,   81.8, -999.0
03-01-2022, 06:51:25,    254,    2.2,    6.7,   0.00,   0.00, 1005.9,   81.8, -999.0
03-01-2022, 06:51:35,    207,    3.0,    6.7,   0.00,   0.00, 1005.9,   81.9, -999.0
03-01-2022, 06:51:45,    235,    1.6,    6.6,   0.00,   0.00, 1005.9,   81.8, -999.0
03-01-2022, 06:51:55,    217,    2.4,    6.7,   0.00,   0.00, 1006.0,   81.8, -999.0
03-01-2022, 06:52:04,    220,    1.1,    6.7,   0.00,   0.00, 1006.0,   81.8, -999.0
03-01-2022, 06:52:14,    207,    0.9,    6.7,   0.00,   0.00, 1005.9,   81.8, -999.0
03-01-2022, 06:52:25,    232,    1.0,    6.7,   0.00,   0.00, 1005.9,   81.8, -999.0
03-01-2022, 06:52:34,    211,    0.7,    6.7,   0.00,   0.00, 1005.9,   81.6, -999.0
03-01-2022, 06:52:44,    199,    3.4,    6.7,   0.00,   0.00, 1005.9,   81.7, -999.0
03-01-2022, 06:52:55,    201,    2.7,    6.7,   0.00,   0.00, 1005.9,   81.8, -999.0
03-01-2022, 06:53:04,    201,    0.7,    6.7,   0.00,   0.00, 1005.9,   81.6, -999.0
03-01-2022, 06:53:14,    201,    0.4,    6.6,   0.00,   0.00, 1005.9,   81.5, -999.0
03-01-2022, 06:53:24,    202,    0.7,    6.8,   0.00,   0.00, 1005.9,   81.7, -999.0
03-01-2022, 06:53:34,    204,    1.0,    6.7,   0.00,   0.00, 1005.9,   81.7, -999.0
03-01-2022, 06:53:44,    207,    0.3,    6.7,   0.00,   0.00, 1005.9,   81.6, -999.0
03-01-2022, 06:53:54,    206,    0.5,    6.7,   0.00,   0.00, 1005.9,   81.4, -999.0
03-01-2022, 06:54:04,    195,    1.3,    6.6,   0.00,   0.00, 1005.9,   81.5, -999.0
03-01-2022, 06:54:14,    207,    0.2,    6.6,   0.00,   0.00, 1005.8,   81.5, -999.0
03-01-2022, 06:54:24,    221,    0.8,    6.7,   0.00,   0.00, 1005.8,   81.5, -999.0
03-01-2022, 06:54:34,    207,    0.3,    6.6,   0.00,   0.00, 1005.8,   81.5, -999.0
03-01-2022, 06:54:44,    217,    2.2,    6.7,   0.00,   0.00, 1005.9,   81.6, -999.0
03-01-2022, 06:54:54,    248,    1.5,    6.7,   0.00,   0.00, 1005.9,   81.6, -999.0
03-01-2022, 06:55:04,    236,    1.6,    6.7,   0.00,   0.00, 1005.9,   81.7, -999.0
03-01-2022, 06:55:13,    231,    0.2,    6.6,   0.00,   0.00, 1005.8,   81.5, -999.0
03-01-2022, 06:55:24,    211,    2.5,    6.6,   0.00,   0.00, 1005.9,   81.6, -999.0
03-01-2022, 06:55:34,    241,    1.6,    6.6,   0.00,   0.00, 1005.9,   81.7, -999.0
03-01-2022, 06:55:43,    235,    1.6,    6.7,   0.00,   0.00, 1005.9,   81.6, -999.0
03-01-2022, 06:55:53,    193,    1.3,    6.7,   0.00,   0.00, 1005.9,   81.6, -999.0
03-01-2022, 06:56:04,    226,    2.5,    6.7,   0.00,   0.00, 1005.9,   81.6, -999.0
03-01-2022, 06:56:13,    242,    3.7,    6.7,   0.00,   0.00, 1005.9,   81.6, -999.0
03-01-2022, 06:56:23,    254,    2.0,    6.8,   0.00,   0.00, 1005.9,   81.6, -999.0
03-01-2022, 06:56:33,    251,    0.4,    6.7,   0.00,   0.00, 1005.9,   81.7, -999.0
03-01-2022, 06:56:43,    217,    0.0,    6.6,   0.00,   0.00, 1005.8,   81.2, -999.0
03-01-2022, 06:56:53,    218,    1.7,    6.7,   0.00,   0.00, 1005.9,   81.6, -999.0
03-01-2022, 06:57:03,    258,    1.4,    6.8,   0.00,   0.00, 1005.9,   81.5, -999.0
03-01-2022, 06:57:13,    216,    1.6,    6.8,   0.00,   0.00, 1005.9,   81.6, -999.0
03-01-2022, 06:57:23,    216,    0.0,    6.7,   0.00,   0.00, 1005.8,   81.2, -999.0
03-01-2022, 06:57:33,    189,    1.1,    6.7,   0.00,   0.00, 1005.8,   81.4, -999.0
03-01-2022, 06:57:45,    203,    1.8,    6.7,   0.00,   0.00, 1005.9,   81.5, -999.0
03-01-2022, 06:57:53,    259,    1.3,    6.7,   0.00,   0.00, 1005.9,   81.5, -999.0
03-01-2022, 06:58:03,    201,    1.2,    6.7,   0.00,   0.00, 1005.8,   81.3, -999.0
03-01-2022, 06:58:13,    240,    1.3,    6.7,   0.00,   0.00, 1005.9,   81.3, -999.0
03-01-2022, 06:58:23,    240,    0.0,    6.7,   0.00,   0.00, 1005.7,   81.1, -999.0
03-01-2022, 06:58:33,    240,    0.0,    6.6,   0.00,   0.00, 1005.7,   81.0, -999.0
03-01-2022, 06:58:42,    241,    0.5,    6.6,   0.00,   0.00, 1005.8,   81.1, -999.0
03-01-2022, 06:58:53,    200,    3.7,    6.7,   0.00,   0.00, 1005.9,   81.2, -999.0
03-01-2022, 06:59:02,    235,    4.4,    6.8,   0.00,   0.00, 1005.9,   81.4, -999.0
03-01-2022, 06:59:12,    194,    4.0,    6.7,   0.00,   0.00, 1005.9,   81.3, -999.0
03-01-2022, 06:59:22,    234,    4.9,    6.7,   0.00,   0.00, 1005.9,   81.3, -999.0
03-01-2022, 06:59:32,    244,    6.9,    6.8,   0.00,   0.00, 1005.9,   81.4, -999.0
03-01-2022, 06:59:42,    250,    4.0,    6.7,   0.00,   0.00, 1005.8,   81.3, -999.0
03-01-2022, 06:59:52,    213,    1.8,    6.8,   0.00,   0.00, 1005.9,   81.4, -999.0
03-01-2022, 07:00:02,    236,    0.7,    6.8,   0.00,   0.00, 1005.9,   81.3, -999.0
03-01-2022, 07:00:12,    214,    0.7,    6.8,   0.00,   0.00, 1005.9,   81.3, -999.0
03-01-2022, 07:00:22,    163,    3.2,    6.8,   0.00,   0.00, 1005.9,   81.2, -999.0
03-01-2022, 07:00:32,    184,    4.2,    6.8,   0.00,   0.00, 1005.9,   81.2, -999.0
03-01-2022, 07:00:42,    201,    1.3,    6.8,   0.00,   0.00, 1005.8,   81.1, -999.0
03-01-2022, 07:00:52,    143,    2.3,    6.8,   0.00,   0.00, 1005.8,   81.0, -999.0
03-01-2022, 07:01:02,    204,    1.7,    6.8,   0.00,   0.00, 1005.8,   80.8, -999.0
03-01-2022, 07:01:12,    243,    1.2,    6.8,   0.00,   0.00, 1005.8,   81.0, -999.0
03-01-2022, 07:01:22,    258,    0.8,    6.7,   0.00,   0.00, 1005.8,   80.7, -999.0
03-01-2022, 07:01:32,    274,    4.4,    6.8,   0.00,   0.00, 1005.9,   81.0, -999.0
03-01-2022, 07:01:41,    243,    1.3,    6.8,   0.00,   0.00, 1005.9,   80.9, -999.0
03-01-2022, 07:01:52,    275,    3.8,    6.8,   0.00,   0.00, 1005.9,   80.9, -999.0
03-01-2022, 07:02:02,    215,    4.0,    6.8,   0.00,   0.00, 1005.9,   80.8, -999.0
03-01-2022, 07:02:11,    220,    3.4,    6.8,   0.00,   0.00, 1005.9,   80.8, -999.0
03-01-2022, 07:02:21,    211,    2.2,    6.8,   0.00,   0.00, 1005.8,   80.8, -999.0
03-01-2022, 07:02:32,    233,    2.4,    6.8,   0.00,   0.00, 1005.8,   80.8, -999.0
03-01-2022, 07:02:41,    205,    1.5,    6.8,   0.00,   0.00, 1005.8,   80.8, -999.0
03-01-2022, 07:02:51,    217,    2.1,    6.8,   0.00,   0.00, 1005.9,   80.7, -999.0
03-01-2022, 07:03:01,    263,    0.3,    6.8,   0.00,   0.00, 1005.8,   80.8, -999.0
03-01-2022, 07:03:11,    263,    0.5,    6.8,   0.00,   0.00, 1005.8,   80.7, -999.0
03-01-2022, 07:03:21,    196,    1.1,    6.8,   0.00,   0.00, 1005.9,   80.7, -999.0
03-01-2022, 07:03:31,    277,    1.9,    6.8,   0.00,   0.00, 1005.8,   80.6, -999.0
03-01-2022, 07:03:41,    236,    0.5,    6.7,   0.00,   0.00, 1005.8,   80.6, -999.0
03-01-2022, 07:03:51,    263,    0.4,    6.8,   0.00,   0.00, 1005.7,   80.4, -999.0
03-01-2022, 07:04:01,    200,    0.6,    6.7,   0.00,   0.00, 1005.8,   80.6, -999.0
03-01-2022, 07:04:11,    256,    0.4,    6.8,   0.00,   0.00, 1005.8,   80.6, -999.0
03-01-2022, 07:04:21,    233,    1.5,    6.7,   0.00,   0.00, 1005.8,   80.7, -999.0
03-01-2022, 07:04:31,    233,    0.3,    6.7,   0.00,   0.00, 1005.8,   80.5, -999.0
03-01-2022, 07:04:41,    232,    0.6,    6.7,   0.00,   0.00, 1005.8,   80.7, -999.0
03-01-2022, 07:04:50,    263,    1.4,    6.7,   0.00,   0.00, 1005.8,   80.5, -999.0
03-01-2022, 07:05:01,    214,    1.4,    6.7,   0.00,   0.00, 1005.8,   80.7, -999.0
03-01-2022, 07:05:11,    214,    0.0,    6.6,   0.00,   0.00, 1005.7,   80.3, -999.0
03-01-2022, 07:05:20,    187,    0.3,    6.6,   0.00,   0.00, 1005.8,   80.6, -999.0
03-01-2022, 07:05:30,    204,    2.0,    6.7,   0.00,   0.00, 1005.8,   80.5, -999.0
03-01-2022, 07:05:41,    173,    3.4,    6.8,   0.00,   0.00, 1005.8,   80.8, -999.0
03-01-2022, 07:05:50,    195,    2.8,    6.7,   0.00,   0.00, 1005.8,   80.8, -999.0
03-01-2022, 07:06:00,    169,    1.2,    6.8,   0.00,   0.00, 1005.8,   80.8, -999.0
03-01-2022, 07:06:11,    239,    1.8,    6.7,   0.00,   0.00, 1005.8,   80.7, -999.0
03-01-2022, 07:06:20,    237,    3.0,    6.8,   0.00,   0.00, 1005.8,   80.8, -999.0
03-01-2022, 07:06:30,    238,    3.7,    6.8,   0.00,   0.00, 1005.8,   80.8, -999.0
03-01-2022, 07:06:40,    230,    2.1,    6.8,   0.00,   0.00, 1005.8,   80.7, -999.0
03-01-2022, 07:06:50,    204,    2.1,    6.7,   0.00,   0.00, 1005.8,   80.8, -999.0
03-01-2022, 07:07:00,    245,    3.2,    6.8,   0.00,   0.00, 1005.8,   80.7, -999.0
03-01-2022, 07:07:10,    269,    1.7,    6.8,   0.00,   0.00, 1005.8,   80.8, -999.0
03-01-2022, 07:07:20,    228,    1.8,    6.6,   0.00,   0.00, 1005.8,   80.8, -999.0
03-01-2022, 07:07:30,    249,    3.9,    6.8,   0.00,   0.00, 1005.8,   80.7, -999.0
03-01-2022, 07:07:40,    212,    1.9,    6.8,   0.00,   0.00, 1005.8,   80.7, -999.0
03-01-2022, 07:07:50,    212,    0.6,    6.7,   0.00,   0.00, 1005.7,   80.6, -999.0
03-01-2022, 07:07:59,    191,    1.0,    6.7,   0.00,   0.00, 1005.8,   80.7, -999.0
03-01-2022, 07:08:10,    200,    0.1,    6.8,   0.00,   0.00, 1005.8,   80.6, -999.0
03-01-2022, 07:08:20,    236,    2.5,    6.8,   0.00,   0.00, 1005.8,   80.7, -999.0
03-01-2022, 07:08:29,    207,    1.9,    6.8,   0.00,   0.00, 1005.8,   80.7, -999.0
03-01-2022, 07:08:40,    261,    1.4,    6.7,   0.00,   0.00, 1005.8,   80.6, -999.0
03-01-2022, 07:08:50,    226,    1.9,    6.8,   0.00,   0.00, 1005.8,   80.8, -999.0
03-01-2022, 07:08:59,    228,    2.3,    6.8,   0.00,   0.00, 1005.8,   80.7, -999.0
03-01-2022, 07:09:09,    203,    2.6,    6.8,   0.00,   0.00, 1005.8,   80.7, -999.0
03-01-2022, 07:09:19,    212,    0.8,    6.8,   0.00,   0.00, 1005.8,   80.7, -999.0
03-01-2022, 07:09:29,    199,    1.5,    6.7,   0.00,   0.00, 1005.8,   80.7, -999.0
03-01-2022, 07:09:39,    221,    2.2,    6.8,   0.00,   0.00, 1005.7,   80.8, -999.0
03-01-2022, 07:09:49,    226,    3.9,    6.8,   0.00,   0.00, 1005.8,   80.7, -999.0
03-01-2022, 07:09:59,    298,    3.4,    6.8,   0.00,   0.00, 1005.7,   80.8, -999.0
03-01-2022, 07:10:09,    237,    2.2,    6.8,   0.00,   0.00, 1005.7,   80.8, -999.0
03-01-2022, 07:10:19,    169,    0.5,    6.8,   0.00,   0.00, 1005.7,   80.7, -999.0
03-01-2022, 07:10:29,    214,    0.4,    6.7,   0.00,   0.00, 1005.7,   80.6, -999.0
03-01-2022, 07:10:39,    268,    1.5,    6.8,   0.00,   0.00, 1005.8,   80.7, -999.0
03-01-2022, 07:10:49,    247,    2.6,    6.8,   0.00,   0.00, 1005.7,   80.8, -999.0
03-01-2022, 07:10:59,    253,    2.8,    6.8,   0.00,   0.00, 1005.7,   80.7, -999.0
03-01-2022, 07:11:09,    221,    3.9,    6.8,   0.00,   0.00, 1005.8,   80.9, -999.0
03-01-2022, 07:11:19,    239,    0.9,    6.8,   0.00,   0.00, 1005.8,   80.9, -999.0
03-01-2022, 07:11:29,    243,    0.6,    6.8,   0.00,   0.00, 1005.6,   80.6, -999.0
03-01-2022, 07:11:38,    199,    2.5,    6.8,   0.00,   0.00, 1005.7,   80.9, -999.0
03-01-2022, 07:11:49,    220,    1.5,    6.7,   0.00,   0.00, 1005.7,   80.9, -999.0
03-01-2022, 07:11:58,    261,    0.7,    6.8,   0.00,   0.00, 1005.7,   81.0, -999.0
03-01-2022, 07:12:08,    248,    2.5,    6.8,   0.00,   0.00, 1005.7,   80.9, -999.0
03-01-2022, 07:12:19,    247,    0.1,    6.7,   0.00,   0.00, 1005.6,   80.5, -999.0
03-01-2022, 07:12:28,    244,    0.9,    6.7,   0.00,   0.00, 1005.7,   80.7, -999.0
03-01-2022, 07:12:38,    225,    0.4,    6.7,   0.00,   0.00, 1005.7,   80.7, -999.0
03-01-2022, 07:12:48,    213,    0.8,    6.7,   0.00,   0.00, 1005.7,   80.8, -999.0
03-01-2022, 07:12:58,    212,    0.0,    6.7,   0.00,   0.00, 1005.7,   80.7, -999.0
03-01-2022, 07:13:08,    218,    0.8,    6.7,   0.00,   0.00, 1005.7,   80.9, -999.0
03-01-2022, 07:13:18,    212,    2.0,    6.7,   0.00,   0.00, 1005.7,   80.8, -999.0
03-01-2022, 07:13:28,    224,    0.5,    6.7,   0.00,   0.00, 1005.7,   80.9, -999.0
03-01-2022, 07:13:38,    226,    0.0,    6.6,   0.00,   0.00, 1005.6,   80.6, -999.0
03-01-2022, 07:13:48,    214,    0.2,    6.6,   0.00,   0.00, 1005.6,   80.6, -999.0
03-01-2022, 07:13:58,    213,    0.4,    6.7,   0.00,   0.00, 1005.7,   80.8, -999.0
03-01-2022, 07:14:08,    200,    2.1,    6.7,   0.00,   0.00, 1005.7,   80.9, -999.0
03-01-2022, 07:14:18,    204,    1.0,    6.7,   0.00,   0.00, 1005.7,   81.1, -999.0
03-01-2022, 07:14:28,    246,    0.6,    6.6,   0.00,   0.00, 1005.7,   81.0, -999.0
03-01-2022, 07:14:38,    206,    0.2,    6.7,   0.00,   0.00, 1005.7,   80.9, -999.0
03-01-2022, 07:14:48,    242,    1.1,    6.7,   0.00,   0.00, 1005.7,   80.9, -999.0
03-01-2022, 07:14:58,    255,    3.3,    6.7,   0.00,   0.00, 1005.7,   81.0, -999.0
03-01-2022, 07:15:07,    256,    6.1,    6.7,   0.00,   0.00, 1005.7,   81.1, -999.0
03-01-2022, 07:15:17,    206,    3.0,    6.7,   0.00,   0.00, 1005.7,   81.2, -999.0
03-01-2022, 07:15:28,    197,    0.7,    6.7,   0.00,   0.00, 1005.7,   81.1, -999.0
03-01-2022, 07:15:37,    247,    1.8,    6.7,   0.00,   0.00, 1005.8,   81.2, -999.0
03-01-2022, 07:15:47,    253,    2.6,    6.7,   0.00,   0.00, 1005.8,   81.2, -999.0
03-01-2022, 07:15:57,    193,    1.3,    6.6,   0.00,   0.00, 1005.7,   81.2, -999.0
03-01-2022, 07:16:07,    195,    0.5,    6.6,   0.00,   0.00, 1005.8,   81.1, -999.0
03-01-2022, 07:16:17,    194,    1.4,    6.7,   0.00,   0.00, 1005.8,   81.2, -999.0
03-01-2022, 07:16:27,    215,    1.3,    6.7,   0.00,   0.00, 1005.7,   81.2, -999.0
03-01-2022, 07:16:37,    180,    2.6,    6.7,   0.00,   0.00, 1005.8,   81.3, -999.0
03-01-2022, 07:16:47,    203,    1.9,    6.7,   0.00,   0.00, 1005.7,   81.4, -999.0
03-01-2022, 07:16:57,    174,    0.4,    6.7,   0.00,   0.00, 1005.6,   81.2, -999.0
03-01-2022, 07:17:07,    216,    0.4,    6.6,   0.00,   0.00, 1005.7,   81.3, -999.0
03-01-2022, 07:17:17,    239,    0.8,    6.6,   0.00,   0.00, 1005.6,   81.2, -999.0
03-01-2022, 07:17:27,    219,    0.8,    6.7,   0.00,   0.00, 1005.7,   81.3, -999.0
03-01-2022, 07:17:37,    239,    0.7,    6.7,   0.00,   0.00, 1005.7,   81.4, -999.0
03-01-2022, 07:17:46,    238,    0.1,    6.6,   0.00,   0.00, 1005.6,   81.0, -999.0
03-01-2022, 07:17:57,    255,    0.1,    6.5,   0.00,   0.00, 1005.6,   81.1, -999.0
03-01-2022, 07:18:07,    201,    0.9,    6.6,   0.00,   0.00, 1005.7,   81.1, -999.0
03-01-2022, 07:18:16,    202,    0.9,    6.7,   0.00,   0.00, 1005.7,   81.3, -999.0
03-01-2022, 07:18:27,    188,    0.5,    6.7,   0.00,   0.00, 1005.7,   81.3, -999.0
03-01-2022, 07:18:37,    278,    3.4,    6.7,   0.00,   0.00, 1005.7,   81.4, -999.0
03-01-2022, 07:18:46,    247,    4.2,    6.7,   0.00,   0.00, 1005.7,   81.3, -999.0
03-01-2022, 07:18:56,    239,    4.6,    6.6,   0.00,   0.00, 1005.7,   81.3, -999.0
03-01-2022, 07:19:07,    191,    0.9,    6.7,   0.00,   0.00, 1005.7,   81.5, -999.0
03-01-2022, 07:19:16,    207,    0.6,    6.7,   0.00,   0.00, 1005.6,   81.3, -999.0
03-01-2022, 07:19:26,    270,    0.9,    6.7,   0.00,   0.00, 1005.7,   81.4, -999.0
03-01-2022, 07:19:36,    211,    0.3,    6.6,   0.00,   0.00, 1005.6,   81.3, -999.0
03-01-2022, 07:19:46,    209,    1.1,    6.7,   0.00,   0.00, 1005.7,   81.5, -999.0
03-01-2022, 07:19:56,    254,    0.6,    6.6,   0.00,   0.00, 1005.7,   81.4, -999.0
03-01-2022, 07:20:06,    230,    1.5,    6.7,   0.00,   0.00, 1005.7,   81.5, -999.0
03-01-2022, 07:20:16,    249,    2.9,    6.7,   0.00,   0.00, 1005.7,   81.5, -999.0
03-01-2022, 07:20:26,    156,    2.1,    6.7,   0.00,   0.00, 1005.7,   81.4, -999.0
03-01-2022, 07:20:36,    216,    1.3,    6.7,   0.00,   0.00, 1005.7,   81.6, -999.0
03-01-2022, 07:20:46,    276,    1.0,    6.6,   0.00,   0.00, 1005.7,   81.5, -999.0
03-01-2022, 07:20:56,    275,    0.7,    6.7,   0.00,   0.00, 1005.7,   81.5, -999.0
03-01-2022, 07:21:06,    176,    0.1,    6.6,   0.00,   0.00, 1005.6,   81.3, -999.0
03-01-2022, 07:21:16,    244,    1.0,    6.6,   0.00,   0.00, 1005.7,   81.5, -999.0
03-01-2022, 07:21:25,    263,    0.6,    6.6,   0.00,   0.00, 1005.7,   81.6, -999.0